Location: Waco, TX
(31.5480°N, 97.1670°W)
Time: 05:33:25
(UTC-05:00)

ISS - Pass Details

Date: 26 September 2022
Orbit: 414 x 417 km, 51.6° (Epoch: 01 October)

Event Time Altitude Azimuth Distance (km) Brightness Sun altitude
Rises 00:33:32 0° 309° (NW) 2,358 - -57.8°
Reaches altitude 10° 00:35:40 10° 303° (WNW) 1,492 - -57.9°
Maximum altitude 00:38:54 46° 229° (SW) 566 - -58.2°
Drops below altitude 10° 00:42:06 10° 154° (SSE) 1,482 - -58.4°
Sets 00:44:14 0° 148° (SSE) 2,341 - -58.5°
